Meteopurmerend
purmerend
Purmerend - Baaienwijk



My webcam  My webcam


waarschuwing voor Onweer Meer informatie blitzortung!


Regen radar Meer informatie rain snow radar


Bezoek onze andere website:

CandyAppleRed WebdesignWebdesign Purmerend Candy Apple Red

MeteopurmerendBlog

Template documentation
and downloads



Onweer van: 26-07-2021 10:00 tot: 21:00 waarschuwing voor: Onweer niveau: Geel info button
Enkele onweersbuien, lokaal met hagel en veel neerslag in korte tijd.Kans op blikseminslag, hagel en veel neerslag in korte tijd.Verkeer en buitenactiviteiten kunnen hinder ondervinden.Mijd open water en open gebied, schuil niet onder bomen.Volg weerberichten en waarschuwingen.

15 daagse weersverwachting Helsingør (DK)

  • Overzicht
  • Per uur
  • 15 dagen
  • Extra
  • Vergelijk
  • Kaarten
  • Dagkaart
  • Meer »
  • Info
  • Statistieken
  • Directe link
    Temp 6h Neerslag Wind  
 05:06     21:28    Daglengte: 16:22 Vandaag
20:00
24°
 
3
 05:07     21:26    Daglengte: 16:19 Morgen
02:00
20°
 
4
08:00
20°
 
3
14:00
22°
3.1 mm
3
warningclass
20:00
22°
7.0 mm
5
 05:09     21:24    Daglengte: 16:15 Woensdag 28 Jul
02:00
19°
 
4
08:00
20°
 
4
14:00
21°
9.5 mm
4
20:00
20°
12.9 mm
5
warningclass
 05:11     21:22    Daglengte: 16:11 Donderdag 29 Jul
02:00
18°
19.7 mm
6
08:00
18°
 
7
Locatie info
Region: Hovedstaden
Latitude: 56.0334°N
Longitude: 12.6135°E
8 masl
Postcode: 3000
Temp/Neerslag /Baro Onweer/Dauwpunt
    Temp Baro 1h Neerslag Dauwpunt Wind UV Bewolking  
 05:06     21:28    Daglengte: 16:22 Vandaag
15:00
25°
1012.0 hPa
47%
18.1°
4
Windvlaag: 3.6 m/s
74%
16:00
24°
1011.6 hPa
74%
16.5°
4
Windvlaag: 2.2 m/s
47% warningclass
17:00
24°
1011.3 hPa
74%
16.0°
3
Windvlaag: 0 m/s
48%
18:00
24°
1011.0 hPa
72%
16.1°
3
Windvlaag: -1 m/s
47%
19:00
24°
1010.9 hPa
65%
17.0°
3
Windvlaag: -0.1 m/s
51%
20:00
24°
1010.9 hPa
67%
16.4°
3
Windvlaag: 4.6 m/s
58%
21:00
23°
1010.9 hPa
17%
15.7°
4
Windvlaag: 3.9 m/s
68%
22:00
23°
1010.9 hPa
16%
16.2°
3
Windvlaag: 3.4 m/s
29%
23:00
22°
1010.8 hPa
15%
17.1°
3
Windvlaag: 1.3 m/s
46%
 05:07     21:26    Daglengte: 16:19 Morgen
00:00
21°
1010.9 hPa
14%
17.2°
4
Windvlaag: 3.1 m/s
53%
01:00
20°
1010.3 hPa
12%
17.1°
4
Windvlaag: 3.1 m/s
50%
02:00
20°
1010.2 hPa
12%
17.3°
4
Windvlaag: 0.9 m/s
65%
03:00
20°
1010.1 hPa
25%
17.9°
4
Windvlaag: -0.5 m/s
73%
04:00
20°
1009.7 hPa
22%
18.2°
3
Windvlaag: -0.4 m/s
63%
05:00
20°
1009.4 hPa
73%
18.4°
3
Windvlaag: -0.8 m/s
79% warningclass
06:00
20°
1009.1 hPa
73%
18.5°
3
Windvlaag: -0.9 m/s
75%
07:00
20°
1009.0 hPa
19%
18.5°
3
Windvlaag: -1.1 m/s
63%
08:00
20°
1008.9 hPa
25%
18.4°
3
Windvlaag: 0.4 m/s
76%
09:00
21°
1009.1 hPa
73%
18.4°
3
Windvlaag: 3.6 m/s
63%
10:00
21°
1009.2 hPa
71%
19.2°
3
Windvlaag: 4.8 m/s
47%
11:00
22°
1009.1 hPa
74%
18.8°
3
Windvlaag: 4.5 m/s
35%
12:00
22°
1009.1 hPa 0.8 mm
74%
18.0°
4
Windvlaag: 5.2 m/s
42% warningclass
13:00
22°
1009.1 hPa 1.1 mm
80%
17.6°
3
Windvlaag: 5.1 m/s
50% warningclass
14:00
22°
1009.0 hPa 1.2 mm
82%
15.9°
3
Windvlaag: 4.1 m/s
17% warningclass
15:00
23°
1008.9 hPa 2.4 mm
82%
14.2°
3
Windvlaag: 4.8 m/s
53% warningclass
16:00
23°
1009.0 hPa 2.9 mm
82%
13.4°
4
Windvlaag: 5.3 m/s
47% warningclass
17:00
23°
1008.7 hPa
82%
14.5°
4
Windvlaag: 4.6 m/s
11% warningclass
18:00
23°
1008.5 hPa 1.7 mm
82%
15.9°
5
Windvlaag: 5.8 m/s
28% warningclass
19:00
23°
1008.3 hPa
76%
15.7°
5
Windvlaag: 6.3 m/s
13%
20:00
22°
1008.4 hPa
66%
17.4°
5
Windvlaag: 5.8 m/s
21%
21:00
21°
1008.7 hPa
26%
17.7°
4
Windvlaag: 5.9 m/s
42%
22:00
21°
1008.9 hPa
20%
17.6°
4
Windvlaag: 6.6 m/s
45%
23:00
20°
1009.1 hPa
14%
17.3°
4
Windvlaag: 6.9 m/s
64%
 05:09     21:24    Daglengte: 16:15 Woensdag 28 Jul
00:00
20°
1009.2 hPa
17%
16.9°
4
Windvlaag: 6.6 m/s
40%
01:00
19°
1008.9 hPa
17%
16.8°
4
Windvlaag: 6.4 m/s
7%
02:00
19°
1008.8 hPa
15%
16.8°
4
Windvlaag: 5.7 m/s
11%
03:00
19°
1008.6 hPa
15%
16.6°
3
Windvlaag: 4.9 m/s
16%
04:00
18°
1008.4 hPa
14%
16.7°
3
Windvlaag: 3.8 m/s
44%
05:00
19°
1008.2 hPa
14%
16.9°
3
Windvlaag: 4.2 m/s
61%
06:00
19°
1008.2 hPa
15%
17.2°
3
Windvlaag: 4.8 m/s
59%
07:00
19°
1008.0 hPa
29%
17.5°
3
Windvlaag: 6.1 m/s
60%
08:00
20°
1007.8 hPa
77%
17.4°
4
Windvlaag: 7.5 m/s
68%
09:00
20°
1007.7 hPa
82%
17.2°
5
Windvlaag: 6.4 m/s
76%
10:00
20°
1007.7 hPa
81%
16.4°
5
Windvlaag: 5.9 m/s
71%
11:00
20°
1007.4 hPa 3.2 mm
100%
14.8°
4
Windvlaag: 5.4 m/s
53%
12:00
20°
1007.1 hPa 3.1 mm
100%
16.4°
4
Windvlaag: 6.5 m/s
38%
13:00
20°
1006.9 hPa 3.2 mm
94%
17.3°
5
Windvlaag: 7 m/s
30%
14:00
21°
1006.4 hPa
86%
17.0°
4
Windvlaag: 6.4 m/s
59%
15:00
21°
1006.3 hPa
33%
18.1°
5
Windvlaag: 6.6 m/s
57%
16:00
21°
1006.1 hPa 4.1 mm
33%
18.9°
5
Windvlaag: 7.5 m/s
69% warningclass
17:00
21°
1005.9 hPa
97%
18.4°
5
Windvlaag: 7.4 m/s
24%
18:00
21°
1005.6 hPa 2.7 mm
100%
16.5°
5
Windvlaag: 7.1 m/s
15%
19:00
21°
1005.2 hPa 3.0 mm
100%
15.4°
5
Windvlaag: 6.8 m/s
37% warningclass
20:00
20°
1005.1 hPa 3.2 mm
100%
15.0°
5
Windvlaag: 6.9 m/s
48% warningclass
21:00
19°
1005.0 hPa 5.4 mm
100%
15.4°
4
Windvlaag: 6.5 m/s
69% warningclass
22:00
19°
1005.0 hPa 4.8 mm
100%
15.1°
5
Windvlaag: 6.6 m/s
54% warningclass
23:00
19°
1004.7 hPa 5.0 mm
100%
15.1°
5
Windvlaag: 7.5 m/s
92% warningclass
 05:11     21:22    Daglengte: 16:11 Donderdag 29 Jul
00:00
19°
1004.5 hPa 4.5 mm
97%
15.7°
6
Windvlaag: 7.7 m/s
53%
01:00
18°
1004.4 hPa
90%
16.2°
6
Windvlaag: 7.5 m/s
35%
02:00
18°
1004.2 hPa
35%
16.3°
6
Windvlaag: 7.3 m/s
28%
03:00
17°
1003.9 hPa
87%
16.0°
6
Windvlaag: 7.1 m/s
18%
04:00
17°
1003.7 hPa
46%
16.0°
6
Windvlaag: 6.8 m/s
60%
05:00
17°
1003.5 hPa
46%
15.8°
6
Windvlaag: 7.6 m/s
46%
06:00
17°
1003.3 hPa
44%
15.5°
6
Windvlaag: 7.8 m/s
16%
07:00
17°
1003.1 hPa
40%
14.8°
6
Windvlaag: 8.1 m/s
32%
08:00
18°
1002.9 hPa
89%
14.6°
7
Windvlaag: 9.6 m/s
48%
09:00
17°
1001.1 hPa 4.4 mm
100%
12.3°
6
Windvlaag: 10.2 m/s
64%
10:00
18°
1000.8 hPa 4.8 mm
100%
10.6°
6
Windvlaag: 12.4 m/s
100%
11:00
18°
1000.8 hPa 5.4 mm
100%
11.0°
6
Windvlaag: 13 m/s
100%
12:00
17°
1000.6 hPa 6.2 mm
100%
12.6°
6
Windvlaag: 12.3 m/s
98%
13:00
18°
1000.5 hPa 5.8 mm
100%
10.9°
6
Windvlaag: 15.4 m/s
99% warningclass
14:00
18°
1000.3 hPa 5.3 mm
100%
7.0°
7
Windvlaag: 14.4 m/s
94% warningclass
Temp/Neerslag /Baro Onweer/Dauwpunt
    Temp Baro Neerslag Dauwpunt Wind Bewolking  
 05:06     21:28    Daglengte: 16:22 Vandaag
17:00
24°
1011.3 hPa   16.0°
3
48%
20:00
24°
1010.9 hPa   16.4°
3
58%
23:00
22°
1010.8 hPa   17.1°
3
46%
 05:07     21:26    Daglengte: 16:19 Morgen
02:00
20°
1010.2 hPa   17.3°
4
65%
05:00
20°
1009.4 hPa   18.4°
3
79% warningclass
08:00
20°
1008.9 hPa   18.4°
3
76%
11:00
22°
1009.1 hPa   18.8°
3
35%
14:00
22°
1009.0 hPa 3.1 mm 15.9°
3
17% warningclass
17:00
23°
1008.7 hPa 5.3 mm 14.5°
4
11% warningclass
20:00
22°
1008.4 hPa 1.7 mm 17.4°
5
21%
23:00
20°
1009.1 hPa   17.3°
4
64%
 05:09     21:24    Daglengte: 16:15 Woensdag 28 Jul
02:00
19°
1008.8 hPa   16.8°
4
11%
05:00
19°
1008.2 hPa   16.9°
3
61%
08:00
20°
1007.8 hPa   17.4°
4
68%
11:00
20°
1007.4 hPa 3.2 mm 14.8°
4
53%
14:00
21°
1006.4 hPa 6.3 mm 17.0°
4
59%
17:00
21°
1005.9 hPa 4.1 mm 18.4°
5
24%
20:00
20°
1005.1 hPa 8.9 mm 15.0°
5
48% warningclass
23:00
19°
1004.7 hPa 15.2 mm 15.1°
5
92% warningclass
 05:11     21:22    Daglengte: 16:11 Donderdag 29 Jul
02:00
18°
1004.2 hPa 4.5 mm 16.3°
6
28%
05:00
17°
1003.5 hPa   15.8°
6
46%
08:00
18°
1002.9 hPa   14.6°
7
48%
11:00
18°
1000.8 hPa 14.6 mm 11.0°
6
100%
14:00
18°
1000.3 hPa 17.2 mm 7.0°
7
94% warningclass
17:00
16°
1000.6 hPa 15.4 mm 12.0°
10
1%
20:00
17°
1000.6 hPa 17.2 mm 13.1°
13
1%
23:00
16°
1001.3 hPa 18.1 mm 13.0°
10
1%
 05:13     21:20    Daglengte: 16:07 Vrijdag 30 Jul
02:00
15°
1000.1 hPa 18.4 mm 13.4°
9
1%
05:00
16°
998.8 hPa 19.2 mm 13.8°
9
1%
08:00
17°
999.4 hPa 20.3 mm 14.2°
10
1%
11:00
18°
1000.5 hPa 21.8 mm 14.6°
10
1%
14:00
20°
1000.7 hPa 22.8 mm 13.1°
12
1%
17:00
20°
1001.7 hPa 23.0 mm 12.9°
11
1%
20:00
18°
1002.0 hPa 23.0 mm 13.0°
11
1%
23:00
18°
1002.6 hPa 23.1 mm 13.6°
10
1%
 05:15     21:18    Daglengte: 16:03 Zaterdag 31 Jul
02:00
17°
1003.4 hPa 23.2 mm 13.1°
9
1%
05:00
17°
1003.0 hPa 23.3 mm 13.3°
7
1%
08:00
17°
1003.4 hPa 23.4 mm 13.6°
6
1%
11:00
19°
1003.6 hPa 23.5 mm 11.6°
6
1%
14:00
21°
1002.7 hPa 23.6 mm 12.4°
5
1%
17:00
20°
1001.9 hPa 25.4 mm 14.4°
5
1%
20:00
18°
1000.4 hPa 31.0 mm 15.1°
5
1%
23:00
16°
1000.0 hPa 32.4 mm 14.5°
6
0%
 05:17     21:16    Daglengte: 15:59 Zondag 01 Aug
02:00
15°
999.4 hPa 32.5 mm 13.7°
5
0%
05:00
15°
999.5 hPa 34.0 mm 13.2°
5
1%
08:00
16°
1000.7 hPa 34.0 mm 11.5°
6
1%
11:00
17°
1001.5 hPa 34.1 mm 10.2°
6
1%
14:00
19°
1002.0 hPa 34.2 mm 9.3°
7
1%
17:00
19°
1002.0 hPa 34.4 mm 9.0°
7
1%
20:00
17°
1002.0 hPa 34.4 mm 9.7°
7
1%
23:00
16°
1002.3 hPa 34.5 mm 8.9°
7
1%
 05:18     21:14    Daglengte: 15:56 Maandag 02 Aug
02:00
15°
1002.4 hPa 34.6 mm 9.7°
8
1%
05:00
14°
1002.1 hPa 34.9 mm 9.9°
8
0%
08:00
15°
1002.4 hPa 35.4 mm 10.0°
9
1%
11:00
16°
1003.5 hPa 35.8 mm 9.9°
10
1%
14:00
17°
1004.5 hPa 71.8 mm 9.5°
10
1%
20:00
17°
1006.0 hPa 72.7 mm 9.4°
10
1%
 05:20     21:12    Daglengte: 15:52 Dinsdag 03 Aug
02:00
15°
1008.2 hPa 73.8 mm 9.7°
9
1%
08:00
15°
1009.4 hPa 75.0 mm 10.7°
7
1%
14:00
19°
1009.9 hPa 77.8 mm 8.7°
9
1%
20:00
18°
1009.8 hPa 78.1 mm 9.7°
6
1%
 05:22     21:10    Daglengte: 15:48 Woensdag 04 Aug
02:00
14°
1010.6 hPa 78.2 mm 11.4°
5
0%
08:00
16°
1009.1 hPa 78.2 mm 13.2°
7
1%
14:00
19°
1006.8 hPa 79.0 mm 13.4°
10
1%
20:00
18°
1004.5 hPa 82.7 mm 14.3°
8
1%
 05:24     21:08    Daglengte: 15:44 Donderdag 05 Aug
02:00
15°
1003.0 hPa 85.5 mm 13.9°
7
1%
08:00
16°
1001.1 hPa 86.0 mm 13.3°
8
0%
14:00
19°
1009.1 hPa 0.6 mm 12.4°
4
69%
20:00
18°
1008.2 hPa 1.3 mm 12.7°
3
64%
 05:26     21:06    Daglengte: 15:40 Vrijdag 06 Aug
02:00
15°
1008.0 hPa 0.2 mm 12.2°
2
60%
08:00
16°
1007.4 hPa 0.7 mm 12.7°
2
64%
14:00
19°
1007.4 hPa 2.3 mm 12.3°
4
67%
20:00
18°
1007.2 hPa 1.5 mm 12.2°
3
67%
 05:28     21:04    Daglengte: 15:36 Zaterdag 07 Aug
02:00
15°
1007.8 hPa 0.6 mm 11.5°
3
59%
08:00
16°
1007.9 hPa 0.6 mm 11.9°
3
52%
14:00
19°
1008.3 hPa 1.3 mm 12.0°
4
59%
20:00
18°
1008.3 hPa 1.0 mm 12.6°
3
59%
 05:30     21:02    Daglengte: 15:32 Zondag 08 Aug
02:00
15°
1008.7 hPa 0.6 mm 12.0°
3
64%
08:00
16°
1008.7 hPa 0.2 mm 12.3°
3
71%
14:00
19°
1009.0 hPa 1.4 mm 12.5°
3
67%
20:00
18°
1008.9 hPa 1.7 mm 13.0°
2
69%
 05:32     20:59    Daglengte: 15:27 Maandag 09 Aug
02:00
15°
1009.5 hPa 1.7 mm 12.5°
2
65%
08:00
16°
1010.3 hPa 0.2 mm 12.7°
3
68%
14:00
19°
1011.4 hPa 1.4 mm 12.6°
4
65%
20:00
18°
1011.8 hPa 1.2 mm 12.9°
4
59%
 05:34     20:57    Daglengte: 15:23 Dinsdag 10 Aug
02:00
16°
1012.6 hPa 0.6 mm 12.5°
3
62%
08:00
16°
1012.4 hPa 0.6 mm 12.4°
3
60%
14:00
20°
1012.6 hPa 0.6 mm 12.4°
4
56%
  CAPE Lifted Index Hail Supercell Tornado SRH 3km CL BTM PRES CL TOP PRES Swiss DWD icon SMHI TS
 05:06     21:28    Daglengte: 16:22 Vandaag
15:00 905 J/kg -3.4 K 0 % 0 % 0 % 0 m²/s² 0 0 -3.01 80
16:00 436 J/kg -1.7 K 0 % 0 % 0 % 0 m²/s² 0 0 -1.28 95
17:00 368 J/kg -1.7 K 0 % 0 % 0 % 0 m²/s² 0 0 -0.86 80
18:00 351 J/kg -1.7 K 0 % 0 % 0 % 0 m²/s² 0 0 -0.53 80
19:00 314 J/kg -1.6 K 0 % 0 % 0 % 0 m²/s² 0 0 -0.04 3
20:00 221 J/kg -1.2 K 0 % 0 % 0 % 0 m²/s² 0 0 0.45 80
21:00 75 J/kg -0.5 K 0 % 0 % 0 % 0 m²/s² 0 0 1.3 3
22:00 14 J/kg -0.1 K 0 % 0 % 0 % 0 m²/s² 0 0 1.46 3
23:00 0 J/kg 0.1 K 0 % 0 % 0 % 0 m²/s² 0 0 1.42 3
 05:07     21:26    Daglengte: 16:19 Morgen
00:00 39 J/kg -0.5 K 0 % 0 % 0 % 0 m²/s² 0 0 0.7 3
01:00 49 J/kg -0.4 K 0 % 0 % 0 % 0 m²/s² 0 0 0.98 3
02:00 15 J/kg -1.2 K 0 % 0 % 0 % 0 m²/s² 0 0 -0.09 3
03:00 0 J/kg -0.6 K 0 % 0 % 0 % 0 m²/s² 0 0 1.2 3
04:00 0 J/kg -1.3 K 0 % 0 % 0 % 0 m²/s² 0 0 0.23 3
05:00 47 J/kg -1.2 K 0 % 0 % 0 % 0 m²/s² 0 0 0.63 95
06:00 112 J/kg -1.4 K 0 % 0 % 0 % 0 m²/s² 0 0 0.58 80
07:00 251 J/kg -1.8 K 0 % 0 % 0 % 0 m²/s² 0 0 0.03 3
08:00 413 J/kg -2.4 K 0 % 0 % 0 % 0 m²/s² 0 0 0 3
09:00 744 J/kg -3.1 K 0 % 0 % 0 % 0 m²/s² 0 0 -1.21 80
10:00 871 J/kg -3.3 K 0 % 0 % 0 % 0 m²/s² 0 0 -1.26 3
11:00 990 J/kg -3.5 K 0 % 0 % 0 % 0 m²/s² 0 0 -1.4 80
12:00 1138 J/kg -3.6 K 0 % 0 % 0 % 0 m²/s² 0 0 -1.44 95
13:00 1215 J/kg -3.9 K 0 % 0 % 0 % 0 m²/s² 0 0 -2.01 95
14:00 1167 J/kg -4.3 K 0 % 0 % 0 % 0 m²/s² 0 0 -3.73 80
15:00 924 J/kg -3.1 K 0 % 0 % 0 % 0 m²/s² 0 0 -1.27 95
16:00 818 J/kg -3.3 K 0 % 0 % 0 % 0 m²/s² 0 0 -1.59 95
17:00 690 J/kg -3.1 K 0 % 0 % 0 % 0 m²/s² 0 0 -1.12 95
18:00 763 J/kg -3.1 K 0 % 0 % 0 % 0 m²/s² 0 0 -1.12 95
19:00 530 J/kg -2.8 K 0 % 0 % 0 % 0 m²/s² 0 0 -1.09 80
20:00 426 J/kg -2.3 K 0 % 0 % 0 % 0 m²/s² 0 0 -1.16 2
21:00 455 J/kg -1.8 K 0 % 0 % 0 % 0 m²/s² 0 0 -0.69 3
22:00 353 J/kg -1.1 K 0 % 0 % 0 % 0 m²/s² 0 0 1 3
23:00 276 J/kg 0.0 K 0 % 0 % 0 % 0 m²/s² 0 0 2.07 3
 05:09     21:24    Daglengte: 16:15 Woensdag 28 Jul
00:00 283 J/kg -0.2 K 0 % 0 % 0 % 0 m²/s² 0 0 2.44 2
01:00 436 J/kg -1.1 K 0 % 0 % 0 % 0 m²/s² 0 0 2.5 0
02:00 664 J/kg -2.1 K 0 % 0 % 0 % 0 m²/s² 0 0 1.59 0
03:00 801 J/kg -2.6 K 0 % 0 % 0 % 0 m²/s² 0 0 0.79 0
04:00 800 J/kg -2.6 K 0 % 0 % 0 % 0 m²/s² 0 0 0.37 3
05:00 909 J/kg -3.1 K 0 % 0 % 0 % 0 m²/s² 0 0 -0.61 3
06:00 708 J/kg -2.3 K 0 % 0 % 0 % 0 m²/s² 0 0 0.13 3
07:00 331 J/kg -1.2 K 0 % 0 % 0 % 0 m²/s² 0 0 0.45 3
08:00 105 J/kg 0.4 K 0 % 0 % 0 % 0 m²/s² 0 0 0.43 3
09:00 7 J/kg 1.2 K 0 % 0 % 0 % 0 m²/s² 0 0 1.8 80
10:00 96 J/kg -0.2 K 0 % 0 % 0 % 0 m²/s² 0 0 0.37 80
11:00 247 J/kg -1.1 K 0 % 0 % 0 % 0 m²/s² 0 0 -0.59 80
12:00 343 J/kg -1.7 K 0 % 0 % 0 % 0 m²/s² 0 0 -1.1 80
13:00 502 J/kg -2.1 K 0 % 0 % 0 % 0 m²/s² 0 0 -1.26 3
14:00 615 J/kg -2.5 K 0 % 0 % 0 % 0 m²/s² 0 0 -1.45 3
15:00 663 J/kg -2.8 K 0 % 0 % 0 % 0 m²/s² 0 0 -1.81 3
16:00 750 J/kg -2.8 K 0 % 0 % 0 % 0 m²/s² 0 0 -2.2 3
17:00 508 J/kg -1.6 K 0 % 0 % 0 % 0 m²/s² 0 0 -0.7 2
18:00 392 J/kg -1.1 K 0 % 0 % 0 % 0 m²/s² 0 0 -0.2 80
19:00 331 J/kg -1.0 K 0 % 0 % 0 % 0 m²/s² 0 0 0.35 95
20:00 249 J/kg -0.8 K 0 % 0 % 0 % 0 m²/s² 0 0 1.06 95
21:00 189 J/kg -0.7 K 0 % 0 % 0 % 0 m²/s² 0 0 1.58 95
22:00 253 J/kg -1.9 K 0 % 0 % 0 % 0 m²/s² 0 0 -0.04 95
23:00 423 J/kg -1.7 K 0 % 0 % 0 % 0 m²/s² 0 0 -0.71 95
 05:11     21:22    Daglengte: 16:11 Donderdag 29 Jul
00:00 522 J/kg -2.2 K 0 % 0 % 0 % 0 m²/s² 0 0 -0.4 80
01:00 459 J/kg -2.2 K 0 % 0 % 0 % 0 m²/s² 0 0 0.74 2
02:00 389 J/kg -2.0 K 0 % 0 % 0 % 0 m²/s² 0 0 -0.77 3
03:00 520 J/kg -2.8 K 0 % 0 % 0 % 0 m²/s² 0 0 -1.51 2
04:00 519 J/kg -2.8 K 0 % 0 % 0 % 0 m²/s² 0 0 -1.84 3
05:00 392 J/kg -1.4 K 0 % 0 % 0 % 0 m²/s² 0 0 -0.44 2
06:00 266 J/kg -0.4 K 0 % 0 % 0 % 0 m²/s² 0 0 3.47 2
07:00 211 J/kg 0.1 K 0 % 0 % 0 % 0 m²/s² 0 0 4.27 2
08:00 307 J/kg -0.3 K 0 % 0 % 0 % 0 m²/s² 0 0 2.76 3
09:00 271 J/kg 0.3 K 0 % 0 % 0 % 0 m²/s² 0 0 0.48 80
10:00 228 J/kg 1.0 K 0 % 0 % 0 % 0 m²/s² 0 0 1.39 80
11:00 364 J/kg -0.1 K 0 % 0 % 0 % 0 m²/s² 0 0 1.25 80
12:00 451 J/kg -0.8 K 0 % 0 % 0 % 0 m²/s² 0 0 0.91 81
13:00 371 J/kg 1.0 K 0 % 0 % 0 % 0 m²/s² 0 0 3.94 95
14:00 148 J/kg 3.1 K 0 % 0 % 0 % 0 m²/s² 0 0 7.42 95
Temp Baro Wind Neerslag
  EWN Forecast EWN WRFDA DWD ICON FMI HIRLAM MET Norway GFS
 05:06     21:28    Daglengte: 16:22 Vandaag
17:00 23.8° 1011.3 hPa 2.9 m/s 0.0 mm 25.5° 1010.7 hPa 5.9 m/s 0.6 mm 23.4° 1011.7 hPa 2.9 m/s 1.7 mm 24.9° 1011.0 hPa 2.7 m/s 0.0 mm 25.7° 1010.9 hPa 7.0 m/s
20:00 23.7° 1010.9 hPa 3.2 m/s 0.0 mm 24.1° 1010.7 hPa 5.5 m/s 0.6 mm 23.3° 1011.0 hPa 2.9 m/s 1.1 mm 24.5° 1010.8 hPa 3.3 m/s 0.0 mm 23.4° 1010.1 hPa 4.5 m/s
23:00 22.0° 1010.8 hPa 3.3 m/s 0.0 mm 20.7° 1010.3 hPa 5.2 m/s 0.6 mm 21.0° 1011.1 hPa 2.9 m/s 0.0 mm 22.3° 1010.7 hPa 3.7 m/s 0.0 mm 20.2° 1010.8 hPa 3.7 m/s
 05:07     21:26    Daglengte: 16:19 Morgen
02:00 20.1° 1010.2 hPa 3.8 m/s 0.0 mm 18.9° 1009.9 hPa 4.4 m/s 0.6 mm 19.8° 1010.3 hPa 2.5 m/s 0.0 mm 21.0° 1009.4 hPa 3.8 m/s 0.0 mm 17.9° 1010.2 hPa 3.7 m/s
05:00 19.7° 1009.4 hPa 3.0 m/s 0.0 mm 17.9° 1008.8 hPa 4.0 m/s 0.6 mm 19.6° 1010.1 hPa 2.8 m/s 0.9 mm 20.9° 1008.6 hPa 4.1 m/s 0.0 mm 17.9° 1009.3 hPa 3.1 m/s
08:00 20.5° 1008.9 hPa 2.5 m/s 0.0 mm 19.9° 1007.6 hPa 3.4 m/s 0.6 mm 20.5° 1009.7 hPa 2.2 m/s 0.3 mm 21.0° 1008.2 hPa 4.9 m/s 0.0 mm 20.3° 1009.1 hPa 3.0 m/s
11:00 21.8° 1009.1 hPa 3.3 m/s 0.0 mm 22.7° 1007.9 hPa 3.6 m/s 0.6 mm 21.7° 1009.6 hPa 2.9 m/s 1.1 mm 22.0° 1008.3 hPa 4.1 m/s 0.0 mm 23.3° 1008.9 hPa 3.1 m/s
14:00 22.5° 1009.0 hPa 3.2 m/s 3.1 mm 20.7° 1008.5 hPa 3.5 m/s 3.6 mm 21.9° 1009.4 hPa 3.2 m/s 3.7 mm 24.2° 1008.3 hPa 2.3 m/s 0.0 mm 23.3° 1009.2 hPa 3.4 m/s
17:00 22.7° 1008.7 hPa 4.4 m/s 5.3 mm 22.7° 1007.3 hPa 1.7 m/s 18.0 mm 21.1° 1009.1 hPa 2.5 m/s 6.9 mm 24.3° 1008.0 hPa 5.0 m/s 0.0 mm 22.1° 1008.9 hPa 2.4 m/s
20:00 22.0° 1008.4 hPa 5.0 m/s 1.7 mm 21.6° 1007.5 hPa 3.7 m/s 18.6 mm 21.6° 1009.0 hPa 3.3 m/s 1.9 mm 22.6° 1007.9 hPa 5.3 m/s 0.0 mm 21.1° 1008.7 hPa 4.2 m/s
23:00 20.1° 1009.1 hPa 3.9 m/s 0.0 mm 19.1° 1007.9 hPa 3.1 m/s 23.4 mm 19.8° 1009.3 hPa 2.5 m/s 0.0 mm 20.2° 1009.0 hPa 3.6 m/s 0.0 mm 18.0° 1009.8 hPa 3.6 m/s
 05:09     21:24    Daglengte: 16:15 Woensdag 28 Jul
02:00 18.8° 1008.8 hPa 3.6 m/s 0.0 mm 18.7° 1007.3 hPa 3.2 m/s 23.4 mm 18.4° 1009.1 hPa 3.4 m/s 0.0 mm 18.8° 1009.0 hPa 2.6 m/s 0.0 mm 17.4° 1009.7 hPa 3.1 m/s
05:00 18.5° 1008.2 hPa 2.9 m/s 0.0 mm 18.2° 1006.5 hPa 1.9 m/s 23.4 mm 17.8° 1008.5 hPa 2.1 m/s 0.0 mm 18.4° 1008.4 hPa 2.8 m/s 0.0 mm 16.9° 1008.6 hPa 3.0 m/s
08:00 19.5° 1007.8 hPa 3.8 m/s 0.0 mm 18.5° 1006.6 hPa 6.2 m/s 23.5 mm 19.5° 1007.9 hPa 3.0 m/s 0.0 mm 19.5° 1008.4 hPa 3.1 m/s 0.0 mm 19.5° 1008.0 hPa 4.2 m/s
11:00 20.1° 1007.4 hPa 4.4 m/s 3.2 mm 20.6° 1006.0 hPa 2.5 m/s 24.8 mm 20.1° 1007.5 hPa 5.0 m/s 3.4 mm 22.4° 1007.6 hPa 4.5 m/s
14:00 20.7° 1006.4 hPa 4.5 m/s 6.3 mm 20.3° 1005.2 hPa 0.5 m/s 27.4 mm 21.2° 1006.4 hPa 4.8 m/s 0.4 mm 22.6° 1007.3 hPa 5.0 m/s
17:00 21.0° 1005.9 hPa 5.1 m/s 4.1 mm 19.5° 1005.6 hPa 4.5 m/s 33.1 mm 21.8° 1005.8 hPa 4.8 m/s 0.0 mm 20.3° 1007.0 hPa 4.5 m/s
20:00 20.3° 1005.1 hPa 4.6 m/s 8.9 mm 20.5° 1004.9 hPa 3.1 m/s 37.5 mm 19.1° 1004.5 hPa 4.3 m/s 2.6 mm 20.3° 1006.4 hPa 5.8 m/s
23:00 19.4° 1004.7 hPa 5.1 m/s 15.2 mm 19.5° 1004.6 hPa 3.4 m/s 37.5 mm 18.2° 1003.6 hPa 5.1 m/s 4.1 mm 17.0° 1006.6 hPa 5.3 m/s
 05:11     21:22    Daglengte: 16:11 Donderdag 29 Jul
02:00 17.6° 1004.2 hPa 5.6 m/s 4.5 mm 16.6° 1004.4 hPa 4.8 m/s 38.2 mm 17.4° 1002.7 hPa 5.4 m/s 0.5 mm 16.1° 1005.7 hPa 5.2 m/s
05:00 16.8° 1003.5 hPa 6.0 m/s 0.0 mm 16.3° 1003.6 hPa 5.7 m/s 38.2 mm 16.5° 1001.8 hPa 5.9 m/s 0.0 mm 15.6° 1004.4 hPa 4.8 m/s
08:00 18.0° 1002.9 hPa 6.9 m/s 0.0 mm 18.3° 1003.3 hPa 6.8 m/s 38.3 mm 16.8° 1000.8 hPa 5.8 m/s 0.0 mm 17.3° 1002.9 hPa 7.5 m/s
11:00 17.6° 1000.8 hPa 6.2 m/s 14.6 mm 20.2° 1002.3 hPa 9.3 m/s 38.6 mm 16.9° 1000.4 hPa 5.4 m/s 2.6 mm 17.3° 1002.2 hPa 10.0 m/s
14:00 18.2° 1000.3 hPa 7.1 m/s 17.2 mm 21.2° 1001.3 hPa 11.3 m/s 42.5 mm 17.5° 1000.0 hPa 6.0 m/s 4.6 mm 18.3° 1001.8 hPa 11.5 m/s
17:00 15.8° 1000.6 hPa 10.4 m/s 15.4 mm 15.8° 1000.6 hPa 10.4 m/s 15.4 mm
20:00 16.7° 1000.6 hPa 12.8 m/s 17.2 mm 16.7° 1000.6 hPa 12.8 m/s 17.2 mm
23:00 15.7° 1001.3 hPa 10.2 m/s 18.1 mm 15.7° 1001.3 hPa 10.2 m/s 18.1 mm
 05:13     21:20    Daglengte: 16:07 Vrijdag 30 Jul
02:00 15.2° 1000.1 hPa 8.8 m/s 18.4 mm 15.2° 1000.1 hPa 8.8 m/s 18.4 mm
05:00 16.0° 998.8 hPa 8.8 m/s 19.2 mm 16.0° 998.8 hPa 8.8 m/s 19.3 mm
08:00 16.7° 999.4 hPa 10.3 m/s 20.3 mm 16.7° 999.4 hPa 10.3 m/s 20.3 mm
11:00 18.3° 1000.5 hPa 10.4 m/s 21.8 mm 18.3° 1000.5 hPa 10.4 m/s 21.8 mm
14:00 20.3° 1000.7 hPa 11.8 m/s 22.8 mm 20.3° 1000.7 hPa 11.8 m/s 22.8 mm
17:00 19.5° 1001.7 hPa 11.4 m/s 23.0 mm 19.5° 1001.7 hPa 11.4 m/s 23.0 mm
20:00 18.2° 1002.0 hPa 10.9 m/s 23.0 mm 18.2° 1002.0 hPa 10.9 m/s 23.0 mm
23:00 17.9° 1002.6 hPa 10.1 m/s 23.1 mm 17.9° 1002.6 hPa 10.1 m/s 23.1 mm
 05:15     21:18    Daglengte: 16:03 Zaterdag 31 Jul
02:00 17.3° 1003.4 hPa 9.0 m/s 23.2 mm 17.3° 1003.4 hPa 9.0 m/s 23.2 mm
05:00 16.7° 1003.0 hPa 7.3 m/s 23.3 mm 16.7° 1003.0 hPa 7.3 m/s 23.3 mm
08:00 17.4° 1003.4 hPa 6.4 m/s 23.4 mm 17.5° 1003.4 hPa 6.4 m/s 23.4 mm
11:00 18.7° 1003.6 hPa 6.0 m/s 23.5 mm 18.7° 1003.6 hPa 6.0 m/s 23.5 mm
14:00 20.8° 1002.7 hPa 5.1 m/s 23.6 mm 20.8° 1002.7 hPa 5.1 m/s 23.6 mm
17:00 19.5° 1001.9 hPa 5.5 m/s 25.4 mm 19.5° 1001.9 hPa 5.5 m/s 25.4 mm
20:00 17.7° 1000.4 hPa 4.9 m/s 31.0 mm 17.7° 1000.4 hPa 4.9 m/s 31.0 mm
23:00 15.6° 1000.0 hPa 5.5 m/s 32.4 mm 15.6° 1000.0 hPa 5.5 m/s 32.4 mm
 05:17     21:16    Daglengte: 15:59 Zondag 01 Aug
02:00 14.7° 999.4 hPa 4.6 m/s 32.5 mm 14.7° 999.4 hPa 4.6 m/s 32.5 mm
05:00 14.8° 999.5 hPa 5.3 m/s 34.0 mm 14.8° 999.5 hPa 5.3 m/s 34.0 mm
08:00 15.9° 1000.7 hPa 5.6 m/s 34.0 mm 15.9° 1000.7 hPa 5.6 m/s 34.0 mm
11:00 16.9° 1001.5 hPa 6.5 m/s 34.1 mm 16.9° 1001.5 hPa 6.4 m/s 34.1 mm
14:00 18.8° 1002.0 hPa 7.1 m/s 34.2 mm 18.8° 1002.0 hPa 7.1 m/s 34.2 mm
17:00 19.0° 1002.0 hPa 7.4 m/s 34.4 mm 19.0° 1002.0 hPa 7.4 m/s 34.4 mm
20:00 17.5° 1002.0 hPa 6.6 m/s 34.4 mm 17.5° 1002.0 hPa 6.6 m/s 34.4 mm
23:00 16.1° 1002.3 hPa 6.6 m/s 34.5 mm 16.1° 1002.3 hPa 6.6 m/s 34.5 mm
 05:18     21:14    Daglengte: 15:56 Maandag 02 Aug
02:00 14.8° 1002.4 hPa 7.5 m/s 34.6 mm 14.8° 1002.4 hPa 7.5 m/s 34.6 mm
05:00 14.2° 1002.1 hPa 7.9 m/s 34.9 mm 14.2° 1002.1 hPa 7.9 m/s 34.9 mm
08:00 14.9° 1002.4 hPa 9.1 m/s 35.4 mm 14.9° 1002.4 hPa 9.1 m/s 35.4 mm
11:00 15.7° 1003.5 hPa 10.0 m/s 35.8 mm 15.7° 1003.5 hPa 10.0 m/s 35.8 mm
14:00 17.3° 1004.5 hPa 9.6 m/s 36.0 mm 17.3° 1004.5 hPa 9.6 m/s 36.0 mm
20:00 16.6° 1006.0 hPa 9.9 m/s 36.5 mm 16.6° 1006.0 hPa 9.9 m/s 36.5 mm
 05:20     21:12    Daglengte: 15:52 Dinsdag 03 Aug
02:00 14.8° 1008.2 hPa 8.8 m/s 37.0 mm 14.8° 1008.2 hPa 8.8 m/s 37.0 mm
08:00 15.5° 1009.4 hPa 7.3 m/s 37.7 mm 15.5° 1009.4 hPa 7.3 m/s 37.7 mm
14:00 18.7° 1009.9 hPa 9.0 m/s 39.0 mm 18.7° 1009.9 hPa 9.0 m/s 39.0 mm
20:00 18.0° 1009.8 hPa 5.9 m/s 39.0 mm 18.0° 1009.8 hPa 5.9 m/s 39.0 mm
 05:22     21:10    Daglengte: 15:48 Woensdag 04 Aug
02:00 14.4° 1010.6 hPa 5.2 m/s 39.1 mm 14.4° 1010.6 hPa 5.2 m/s 39.1 mm
08:00 16.5° 1009.1 hPa 6.8 m/s 39.1 mm 16.5° 1009.1 hPa 6.8 m/s 39.1 mm
14:00 18.9° 1006.8 hPa 9.6 m/s 39.8 mm 18.9° 1006.8 hPa 9.6 m/s 39.8 mm
20:00 18.4° 1004.5 hPa 8.2 m/s 41.6 mm 18.4° 1004.5 hPa 8.2 m/s 41.6 mm
 05:24     21:08    Daglengte: 15:44 Donderdag 05 Aug
02:00 15.0° 1003.0 hPa 6.5 m/s 42.8 mm 15.0° 1003.0 hPa 6.5 m/s 42.8 mm
08:00 16.4° 1001.1 hPa 8.1 m/s 43.0 mm 16.4° 1001.1 hPa 8.1 m/s 43.0 mm
14:00 19.5° 1009.1 hPa 3.6 m/s 0.6 mm
20:00 18.0° 1008.2 hPa 2.5 m/s 1.3 mm
 05:26     21:06    Daglengte: 15:40 Vrijdag 06 Aug
02:00 15.3° 1008.0 hPa 2.4 m/s 0.2 mm
08:00 16.1° 1007.4 hPa 2.2 m/s 0.7 mm
14:00 18.9° 1007.4 hPa 3.6 m/s 2.3 mm
20:00 17.7° 1007.2 hPa 3.0 m/s 1.5 mm
 05:28     21:04    Daglengte: 15:36 Zaterdag 07 Aug
02:00 15.1° 1007.8 hPa 2.8 m/s 0.6 mm
08:00 16.1° 1007.9 hPa 2.9 m/s 0.6 mm
14:00 19.4° 1008.3 hPa 3.6 m/s 1.3 mm
20:00 17.6° 1008.3 hPa 2.9 m/s 1.0 mm
 05:30     21:02    Daglengte: 15:32 Zondag 08 Aug
02:00 15.2° 1008.7 hPa 2.7 m/s 0.6 mm
08:00 15.9° 1008.7 hPa 2.8 m/s 0.2 mm
14:00 19.1° 1009.0 hPa 2.8 m/s 1.4 mm
20:00 17.6° 1008.9 hPa 2.1 m/s 1.7 mm
 05:32     20:59    Daglengte: 15:27 Maandag 09 Aug
02:00 15.3° 1009.5 hPa 2.1 m/s 1.7 mm
08:00 16.1° 1010.3 hPa 2.7 m/s 0.2 mm
14:00 19.4° 1011.4 hPa 3.8 m/s 1.4 mm
20:00 18.0° 1011.8 hPa 3.7 m/s 1.2 mm
 05:34     20:57    Daglengte: 15:23 Dinsdag 10 Aug
02:00 15.7° 1012.6 hPa 3.3 m/s 0.6 mm
08:00 16.2° 1012.4 hPa 3.1 m/s 0.6 mm
14:00 19.8° 1012.6 hPa 4.1 m/s 0.6 mm
FMI Hirlam - 7.5 km EWN WRFDA - 12 km DWD ICON - 7 km GFS - 25 km Basiskaart






























































Updatetijd (Europe/Amsterdam) Resolutie Lengte Stap
FMI Hirlam 14:00, 20:00, 02:00, 08:00 7.5 km 49h 1h
EWN WRFDA 10:30, 16:30, 22:30, 04:30 12 km 73h 1h
DWD ICON 11:45, 17:45, 23:45, 05:45 7 km 75h 1h
GFS 08:30, 14:30, 20:30, 02:30 25 km 237h 3h
30+ mm
25-30 mm
20-25 mm
15-20 mm
10-15 mm
6-10 mm
4-6 mm
2-4 mm
1-2 mm
0.5-1 mm
0.2-0.5 mm
0.1-0.2 mm
30+ mm
25-30 mm
20-25 mm
15-20 mm
10-15 mm
6-10 mm
4-6 mm
2-4 mm
1-2 mm
0.5-1 mm
0.2-0.5 mm
0.1-0.2 mm
Sneeuwval
Natte sneeuw
Hagel
Vorst
30+ mm
25-30 mm
20-25 mm
15-20 mm
10-15 mm
6-10 mm
4-6 mm
2-4 mm
1-2 mm
0.5-1 mm
0.2-0.5 mm
0.1-0.2 mm
Sneeuwval
Natte sneeuw
Hagel
Vorst
Onweer
50 mm
40 mm
30 mm
26 mm
22 mm
18 mm
14 mm
10 mm
9 mm
8 mm
7 mm
6 mm
5 mm
4.5 mm
4 mm
3.5 mm
3 mm
2.5 mm
2 mm
1.5 mm
1 mm
0.8 mm
0.6 mm
0.4 mm
0.2 mm
0.05 mm
<
35°
30°
25°
20°